Weather Roundup
Issued by NWS Corpus Christi, TX

Home | Current Version | Previous Version | Text Only | Print | Product List | Glossary Off
Versions: 1 2 3 4 5 6 7 8 9 10 11 12 13 14 15 16 17 18 19 20 21 22 23 24 25 26 27 28 29 30 31 32 33 34 35 36 37 38 39 40 41 42 43 44 45 46 47 48 49 50

000
ASUS44 KCRP 160710
HRRCRP

SOUTH TEXAS REGIONAL WEATHER ROUNDUP
NATIONAL WEATHER SERVICE CORPUS CHRISTI TX
200 AM CDT TUE SEP 16 2014


TXZ229>244-160800-
...CORPUS CHRISTI AREA OBSERVATIONS...

CITY           SKY/WX    TMP DP  RH WIND       PRES   REMARKS
CORPUS CHRISTI MOCLDY    80  77  90 N8        30.01F
NAS CORPUS CHR MOCLDY   N/A N/A N/A N9        29.99F
ROCKPORT       PTCLDY    80  78  94 NE7       30.01F
KINGSVILLE NAS PTCLDY    79  78  97 N7        30.01F
ALICE          MOCLDY    78  76  93 N5        30.02F
FALFURRIAS     CLEAR     64  60  89 CALM      30.01S
$$

...VICTORIA AREA OBSERVATIONS...

CITY           SKY/WX    TMP DP  RH WIND       PRES   REMARKS
VICTORIA       CLEAR     78  76  93 N6        30.04F
BEEVILLE       FAIR      79  77  93 NE3       30.04S
PLEASANTON     CLOUDY    78  70  77 NE5       30.07R
SAN ANTONIO    CLOUDY    80  70  71 NE8       30.09S
$$

...LAREDO AREA OBSERVATIONS...

CITY           SKY/WX    TMP DP  RH WIND       PRES   REMARKS
LAREDO         MOCLDY    77  71  81 CALM      30.08S
COTULLA        MOCLDY    77  69  76 CALM      30.06S
DEL RIO        MOCLDY    75  70  84 CALM      30.09F
MCALLEN        MOCLDY    78  76  93 W5        30.02F
HEBBRONVILLE   PTCLDY    76  73  89 CALM      30.07R
$$

...OTHER TEXAS OBSERVATIONS...

CITY           SKY/WX    TMP DP  RH WIND       PRES   REMARKS
BROWNSVILLE    MOCLDY    76  76 100 CALM      30.02S FOG
HOUSTON        CLOUDY    79  76  90 N5        30.06F
COL. STATION   MOCLDY    77  73  87 NE6       30.09S
AUSTIN         CLOUDY    77  73  87 NE3       30.09S
WACO           CLOUDY    75  69  81 CALM      30.11F
FORT WORTH     CLOUDY    77  69  76 S3        30.11F
WICHITA FALLS  MOCLDY    75  69  81 S6        30.12S
LUBBOCK        CLOUDY    69  65  86 NE3       30.23S
EL PASO        LGT RAIN  70  65  84 N5        30.20S
$$

...MARINE OBSERVATIONS...

STATION/POSITION TIME  SKY/WX   TEMP    WIND        PRES    VSBY  WAVE   SWELL
                                AIR SEA DIR/SP/G                  HT/PER HT/PER
                 (UTC)          (F)     (DEG/KT/KT) (MB)    (MI)  (FT/S) (FT/S)
PORT ARANSAS     0700            83 83   60/ 12/ 13 1016.2F
BUOY 90 E PORT A 0700            83 85  140/ 12/ 16 1016.6S         3/ 7   2/ 7
BUOY 45 SE BAFFI 0700            83 84  120/  8/ 10 1015.1F         3/ 7   3/ 7
BUOY 200 E PT IS 0700            83 86  160/ 14/ 16 1016.9F         3/ 5   2/ 8
BUOY 15 E GALVES 0700            80 85  200/  2/  6 1017.0F         2/ 5   2/ 5
$$


USA.gov is the U.S. government's official web portal to all federal, state and local government web resources and services.